Date String (YYYY-MM-DD hh:mm:ss) UTC,Instrument flags,absolute air pressure of the measurement (hPa),sample flow rate (lpm),inlet stack bypass flow (lpm),air temperature of the measurement (°C),ambient temperature measured by the external sensor (°C),aerosol sample conditioner tube jacket temperature (°C),OPC LED temperature (°C),internal box temperature (°C),relative humidity of the measurement (%),span deviation,mass concentration of particles derived from Lorenz-Mie calculation of OPC scattering (μg/m³),mass concentration of particles derived from Lorenz-Mie calculation of OPC scattering (μg/m³),mass concentration of particles derived from Lorenz-Mie calculation of OPC scattering (μg/m³)
DateTimeUTC,F1_M11,P_M11,Q1_M11,Q2_M11,T1_M11,T2_M11,T3_M11,T4_M11,T5_M11,U1_M11,ZSPAN_M11,X2_M11,X0_M11,X1_M11
2024-02-29 01:00:00,SystemResetWarning,0827.7,5.01,000.00,022.4,021.7,000.0,030.6,024.1,06.5,0000.0,0003.12,0007.33,0001.43
2024-02-29 01:01:00,SystemResetWarning,0827.7,5.00,000.00,022.4,021.7,000.0,030.6,024.1,06.7,0000.0,0003.17,0007.56,0001.43
2024-02-29 01:02:00,SystemResetWarning,0827.7,5.00,000.00,022.4,021.7,000.0,030.6,024.1,06.6,0000.0,0003.17,0007.42,0001.44
2024-02-29 01:03:00,SystemResetWarning,0827.7,5.00,000.00,022.4,021.6,000.0,030.6,024.1,06.7,0000.0,0003.19,0007.60,0001.46
2024-02-29 01:04:00,SystemResetWarning,0827.7,5.00,000.00,022.4,021.7,000.0,030.6,024.1,06.8,0000.0,0003.24,0007.97,0001.47
2024-02-29 01:05:00,SystemResetWarning,0827.7,5.00,000.00,022.4,021.7,000.0,030.6,024.1,06.9,0000.0,0003.25,0008.03,0001.48
2024-02-29 01:06:00,SystemResetWarning,0827.8,5.00,000.00,022.4,021.7,000.0,030.6,024.1,06.9,0000.0,0003.26,0008.04,0001.49
2024-02-29 01:07:00,SystemResetWarning,0827.8,5.00,000.00,022.4,021.7,000.0,030.6,024.1,06.9,0000.0,0003.29,0008.15,0001.49
2024-02-29 01:08:00,SystemResetWarning,0827.8,5.00,000.00,022.4,021.7,000.0,030.6,024.1,07.0,0000.0,0003.30,0008.17,0001.49
2024-02-29 01:09:00,SystemResetWarning,0827.8,5.00,000.00,022.4,021.7,000.0,030.6,024.2,07.0,0000.0,0003.34,0008.29,0001.50
2024-02-29 01:10:00,SystemResetWarning,0827.8,5.01,000.00,022.4,021.6,000.0,030.6,024.2,07.2,0000.0,0003.36,0009.13,0001.50
2024-02-29 01:11:00,SystemResetWarning,0827.8,5.00,000.00,022.4,021.6,000.0,030.7,024.2,07.2,0000.0,0003.34,0009.86,0001.50
2024-02-29 01:12:00,SystemResetWarning,0827.8,5.00,000.00,022.4,021.6,000.0,030.7,024.2,07.3,0000.0,0003.30,0009.75,0001.49
2024-02-29 01:13:00,SystemResetWarning,0827.8,4.99,000.00,022.4,021.6,000.0,030.7,024.2,07.3,0000.0,0003.30,0009.72,0001.49
2024-02-29 01:14:00,SystemResetWarning,0827.8,5.00,000.00,022.4,021.6,000.0,030.7,024.2,07.3,0000.0,0003.34,0009.72,0001.49
2024-02-29 01:15:00,SystemResetWarning,0827.8,5.00,000.00,022.4,021.6,000.0,030.7,024.2,07.3,0000.0,0003.35,0009.53,0001.49
2024-02-29 01:16:00,SystemResetWarning,0827.7,5.00,000.00,022.4,021.6,000.0,030.7,024.1,07.3,0000.0,0003.35,0009.59,0001.51
2024-02-29 01:17:00,SystemResetWarning,0827.8,5.01,000.00,022.4,021.6,000.0,030.7,024.1,07.3,0000.0,0003.33,0009.63,0001.52
2024-02-29 01:18:00,SystemResetWarning,0827.8,5.01,000.00,022.4,021.6,000.0,030.7,024.1,07.3,0000.0,0003.31,0009.62,0001.53
2024-02-29 01:19:00,SystemResetWarning,0827.7,4.99,000.00,022.3,021.5,000.0,030.7,024.1,07.4,0000.0,0003.31,0009.60,0001.53
2024-02-29 01:20:00,SystemResetWarning,0827.7,4.99,000.00,022.3,021.5,000.0,030.7,024.0,07.4,0000.0,0003.28,0009.45,0001.55
2024-02-29 01:21:00,SystemResetWarning,0827.7,4.99,000.00,022.3,021.5,000.0,030.7,024.0,07.4,0000.0,0003.26,0008.82,0001.55
2024-02-29 01:22:00,SystemResetWarning,0827.8,5.01,000.00,022.3,021.5,000.0,030.7,024.0,07.4,0000.0,0003.25,0007.84,0001.55
2024-02-29 01:23:00,SystemResetWarning,0827.8,5.00,000.00,022.3,021.5,000.0,030.7,024.0,07.3,0000.0,0003.22,0007.60,0001.56
2024-02-29 01:24:00,SystemResetWarning,0827.8,4.99,000.00,022.3,021.5,000.0,030.7,024.0,07.3,0000.0,0003.27,0007.71,0001.58
2024-02-29 01:25:00,SystemResetWarning,0827.7,4.99,000.00,022.2,021.5,000.0,030.7,024.0,07.3,0000.0,0003.24,0007.60,0001.58
2024-02-29 01:26:00,SystemResetWarning,0827.7,5.00,000.00,022.2,021.4,000.0,030.7,023.9,07.3,0000.0,0003.22,0007.57,0001.58
2024-02-29 01:27:00,SystemResetWarning,0827.7,5.02,000.00,022.2,021.4,000.0,030.7,023.9,07.3,0000.0,0003.20,0007.54,0001.57
2024-02-29 01:28:00,SystemResetWarning,0827.7,5.00,000.00,022.2,021.4,000.0,030.6,023.9,07.3,0000.0,0003.23,0007.58,0001.57
2024-02-29 01:29:00,SystemResetWarning,0827.7,4.99,000.00,022.2,021.4,000.0,030.6,023.9,07.3,0000.0,0003.30,0007.77,0001.56
2024-02-29 01:30:00,SystemResetWarning,0827.7,4.99,000.00,022.2,021.4,000.0,030.6,023.9,07.3,0000.0,0003.33,0008.03,0001.56
2024-02-29 01:31:00,SystemResetWarning,0827.7,5.00,000.00,022.1,021.4,000.0,030.6,023.8,07.3,0000.0,0003.39,0009.02,0001.57
2024-02-29 01:32:00,SystemResetWarning,0827.7,5.00,000.00,022.1,021.4,000.0,030.6,023.8,07.4,0000.0,0003.43,0009.10,0001.58
2024-02-29 01:33:00,SystemResetWarning,0827.7,5.00,000.00,022.1,021.3,000.0,030.6,023.8,07.2,0000.0,0003.49,0009.27,0001.61
2024-02-29 01:34:00,SystemResetWarning,0827.7,5.01,000.00,022.1,021.3,000.0,030.6,023.8,07.3,0000.0,0003.57,0009.99,0001.64
2024-02-29 01:35:00,SystemResetWarning,0827.7,5.00,000.00,022.1,021.3,000.0,030.6,023.8,07.3,0000.0,0003.53,0010.24,0001.66
2024-02-29 01:36:00,SystemResetWarning,0827.7,5.00,000.00,022.1,021.3,000.0,030.5,023.8,07.3,0000.0,0003.51,0010.44,0001.68
2024-02-29 01:37:00,SystemResetWarning,0827.7,4.99,000.00,022.1,021.3,000.0,030.5,023.8,07.3,0000.0,0003.52,0010.54,0001.69
2024-02-29 01:38:00,SystemResetWarning,0827.7,4.99,000.00,022.0,021.3,000.0,030.5,023.7,07.4,0000.0,0003.55,0010.44,0001.69
2024-02-29 01:39:00,SystemResetWarning,0827.7,5.01,000.00,022.0,021.2,000.0,030.5,023.7,07.4,0000.0,0003.51,0010.19,0001.68
2024-02-29 01:40:00,SystemResetWarning,0827.7,5.00,000.00,022.0,021.2,000.0,030.5,023.7,07.3,0000.0,0003.48,0010.07,0001.69
2024-02-29 01:41:00,SystemResetWarning,0827.7,5.01,000.00,022.0,021.2,000.0,030.5,023.7,07.3,0000.0,0003.46,0010.25,0001.69
2024-02-29 01:42:00,SystemResetWarning,0827.8,4.99,000.00,022.0,021.2,000.0,030.5,023.6,07.4,0000.0,0003.40,0009.19,0001.69
2024-02-29 01:43:00,SystemResetWarning,0827.8,4.99,000.00,021.9,021.1,000.0,030.5,023.6,07.3,0000.0,0003.43,0009.26,0001.69
2024-02-29 01:44:00,SystemResetWarning,0827.8,5.00,000.00,021.9,021.1,000.0,030.4,023.6,07.3,0000.0,0003.41,0009.27,0001.69
2024-02-29 01:45:00,SystemResetWarning,0827.8,5.00,000.00,021.9,021.1,000.0,030.4,023.6,07.3,0000.0,0003.41,0009.25,0001.67
2024-02-29 01:46:00,SystemResetWarning,0827.8,5.00,000.00,021.9,021.1,000.0,030.4,023.6,07.3,0000.0,0003.45,0008.91,0001.67
2024-02-29 01:47:00,SystemResetWarning,0827.8,5.00,000.00,021.9,021.1,000.0,030.4,023.6,07.3,0000.0,0003.50,0008.82,0001.65
2024-02-29 01:48:00,SystemResetWarning,0827.8,5.00,000.00,021.9,021.0,000.0,030.4,023.6,07.3,0000.0,0003.51,0008.71,0001.65
2024-02-29 01:49:00,SystemResetWarning,0827.9,5.01,000.00,021.8,021.0,000.0,030.4,023.6,07.4,0000.0,0003.49,0008.65,0001.66
2024-02-29 01:50:00,SystemResetWarning,0827.8,5.01,000.00,021.8,021.0,000.0,030.4,023.6,07.3,0000.0,0003.53,0008.76,0001.66
2024-02-29 01:51:00,SystemResetWarning,0827.8,5.00,000.00,021.8,021.0,000.0,030.4,023.5,07.2,0000.0,0003.55,0008.77,0001.66
2024-02-29 01:52:00,SystemResetWarning,0827.8,4.99,000.00,021.8,021.0,000.0,030.3,023.5,07.3,0000.0,0003.55,0008.60,0001.66
2024-02-29 01:53:00,SystemResetWarning,0827.8,5.00,000.00,021.8,020.9,000.0,030.3,023.5,07.2,0000.0,0003.55,0008.61,0001.67
2024-02-29 01:54:00,SystemResetWarning,0827.8,5.00,000.00,021.8,020.9,000.0,030.3,023.5,07.2,0000.0,0003.52,0008.49,0001.66
2024-02-29 01:55:00,SystemResetWarning,0827.8,5.01,000.00,021.8,020.9,000.0,030.3,023.5,07.2,0000.0,0003.53,0008.38,0001.66
2024-02-29 01:56:00,SystemResetWarning,0827.8,5.01,000.00,021.7,020.9,000.0,030.3,023.5,07.1,0000.0,0003.55,0008.77,0001.67
2024-02-29 01:57:00,SystemResetWarning,0827.8,4.99,000.00,021.7,020.9,000.0,030.3,023.5,07.2,0000.0,0003.51,0008.47,0001.67
2024-02-29 01:58:00,SystemResetWarning,0827.8,4.99,000.00,021.7,020.9,000.0,030.3,023.4,07.2,0000.0,0003.49,0008.37,0001.69
2024-02-29 01:59:00,SystemResetWarning,0827.9,5.00,000.00,021.7,020.9,000.0,030.3,023.4,07.0,0000.0,0003.52,0008.72,0001.68
